Погода в Хохлове

Россия / Вологодская область     59°08′49″N   37°23′53″E
темп.,
°C
ветер,
м/с
пор.,
м/с
влажн.,
%
обл.,
%
осадки,
мм/ч
давл.,
гПа
погр.,
м
12 мая, ср
ср1200:00+10ююв22775 0.0 102827
03:00+9ююв22820 0.0 102840
06:00+10ююв23790 0.0 1028104
09:00+16ююв23580 0.0 1028384
12:00+20юв33524 0.0 1027762
15:00+21юв23500 0.0 1025810
18:00+21вюв13545 0.0 1024557
21:00+16в35825 0.0 102383
13 мая, чт
чт1300:00+14вюв268741 0.0 1023123
03:00+12вюв25935 0.0 102394
06:00+14юв398525 0.0 1022410
09:00+16ююв487447 0.0 1022785
12:00+19юв586666 0.0 10211193
15:00+20юв476189 0.1 10191410
18:00+19в477423 0.8 1016811
21:00+14вюв3119598 2.8 1014444
14 мая, пт
пт1400:00+13ююв41097100 1.2 1014635
03:00+11ю4109492 1.3 1014619
06:00+9ю4119162 0.0 1015529
09:00+13ююз58704 0.0 1016971
12:00+17ююз584766 0.0 10161717
15:00+19ююз574351 0.0 10162038
18:00+17ю365785 0.0 1015997
21:00+11юв37808 0.0 1015133
15 мая, сб
сб1500:00+11вюв2382100 0.0 101543
03:00+10в378798 0.0 1013139
06:00+12в379098 0.0 1012212
09:00+17юв478588 1.1 1011667
12:00+18ююв468294 0.3 1010485
15:00+20юв457188 1.5 1008748
18:00+18ююв3780100 0.5 1006398
21:00+14ююв3698100 2.4 1006192
16 мая, вс
вс1600:00+12ююв3799100 2.1 1005180
03:00+12ююв2799100 2.1 1005169
06:00+13ю31096100 0.0 1005404
09:00+13ююз5991100 0.1 1006658
12:00+15юз4886100 0.0 1007773
15:00+16зюз698123 1.8 10081080
18:00+14зюз4119055 1.4 1010599
21:00+13зюз41094100 2.3 1011543